[[{"header":{"parameterUnit":"m.s-1","parameterCategory":1,"la1":30.2991,"la2":30.254,"lo1":-89.0895,"lo2":-89.0444,"dy":0.0017,"dx":0.0017,"nx":28,"ny":28,"refTime":"2024-07-31T09:00:00:Z","depth":0,"parameterNumber":2,"parameterNumberName":"U-component_of_WINDS"},"data":[0,0,0,0,0,0,0,0,0,0,0,0,0,0,0,0,0,0,0,0,0,0,0,0,0,0,0,0,0,0,0,0,0,0,0,0,0,0,0,0,0,0,0,0,0,0,0,0,0,0,0,0,0,0,0,0,0,0,2.5782,2.5782,0,2.5809,2.581,2.581,2.575,2.5748,2.5746,2.5744,2.5773,2.5775,2.5778,0,0,0,0,0,0,0,0,0,0,0,0,0,2.5677,2.5679,2.5782,2.5782,2.5783,2.5809,2.581,2.581,2.575,2.5748,2.5745,2.5743,2.5772,2.5775,2.5778,0,0,0,0,0,0,0,0,0,0,0,0,0,2.5715,2.568,2.5782,2.5756,2.5754,2.5809,2.581,2.581,2.5751,2.5748,2.5745,2.5742,2.5771,2.5775,2.5779,2.5861,0,0,2.579,2.5792,0,0,0,0,0,0,0,0,2.5713,2.5719,2.5759,2.5758,2.5756,2.5773,2.5783,2.5827,2.5751,2.5752,2.5744,2.5741,2.5775,2.5779,2.579,2.5862,2.5863,2.5791,2.5793,2.5795,2.5796,0,0,0,0,0,0,0,2.5711,2.5718,2.5793,2.576,2.5758,2.5743,2.5745,2.5791,2.578,2.5752,2.5747,2.5751,2.5774,2.5787,2.5791,2.5864,2.5791,2.5794,2.5796,2.5798,2.6001,2.6004,0,0,0,0,0,0,2.5711,2.5716,2.5792,2.5794,2.5727,2.5747,2.5749,2.5771,2.5779,2.5777,2.5754,2.5748,2.5782,2.5786,2.5791,2.5885,2.5795,2.5798,2.5801,2.5998,2.6001,2.6005,0,0,0,0,0,0,2.5709,2.5719,2.5791,2.5754,2.5762,2.5752,2.5776,2.5773,2.5785,2.5781,2.5778,2.5769,2.5779,2.5786,2.5843,2.5885,2.58,2.5804,2.5994,2.5999,2.6003,2.6075,0,0,0,0,0,0,2.5707,2.5718,2.575,2.5755,2.5764,2.5843,2.5779,2.5775,2.5792,2.5785,2.5794,2.5793,2.5778,2.5838,2.5847,2.5889,2.5807,2.599,2.5996,2.6002,2.6069,2.6082,2.6092,0,0,0,0,0,2.5703,2.577,2.5752,2.5761,2.5803,2.5845,2.585,2.5831,2.5796,2.5827,2.5823,2.5793,2.588,2.5844,2.5854,2.5898,2.5987,2.5994,2.6001,2.6063,2.6079,2.6092,0,0,0,0,0,0,2.5771,2.577,2.575,2.5821,2.5833,2.5835,2.5874,2.5849,2.5872,2.5865,2.584,2.5843,2.5904,2.5907,2.5867,2.5976,2.5927,2.5937,2.5971,2.5986,2.5998,2.5995,2.581,0,0,0,0,0,2.5795,2.5829,2.5826,2.5889,2.5896,2.5884,2.5902,2.5886,2.5898,2.5903,2.5904,2.5917,2.5947,2.5967,2.5995,2.607,2.6069,2.6105,2.6116,2.6126,2.6134,2.617,2.6185,2.6027,2.6027,2.6027,0,0,2.5843,2.5847,2.587,2.5903,2.591,2.5946,2.5889,2.593,2.5955,2.5909,2.5962,2.5964,2.5976,2.6042,2.6071,2.6046,2.6177,2.6135,2.6143,2.6145,2.6179,2.6194,2.6207,2.6032,2.6031,2.603,0,0,2.5948,2.5956,2.6007,2.6016,2.6028,2.6019,2.6031,2.6036,2.6035,2.6088,2.6053,2.6083,2.6136,2.6146,2.6158,2.6264,2.6236,2.6274,2.6335,2.6371,2.6383,2.6394,2.6429,2.6443,2.6282,2.6283,2.6283,0,2.6007,2.6059,2.6037,2.6078,2.6093,2.6052,2.6103,2.6112,2.6134,2.6144,2.6116,2.6179,2.6186,2.6251,2.6277,2.6289,2.6301,2.6272,2.6383,2.6394,2.6404,2.6437,2.6451,2.6287,2.6286,2.6286,2.6286,0,2.6128,2.6165,2.6204,2.6224,2.6243,2.6289,2.6273,2.6295,2.6277,2.6271,2.6324,2.633,2.6356,2.6371,2.6355,2.6434,2.6418,2.6388,2.6338,2.6423,2.6454,2.6467,2.6293,2.6291,2.629,2.6289,0,0,2.6278,2.6282,2.6297,2.6304,2.6314,2.6341,2.6385,2.641,2.6427,2.6444,2.6478,2.6523,2.6494,2.6507,2.6492,2.6524,2.6604,2.6489,2.6489,2.6507,2.6687,2.6708,2.6723,2.6586,2.6588,2.659,2.6685,0,2.6379,2.6453,2.6433,2.6507,2.6538,2.65,2.6537,2.6547,2.6542,2.6568,2.6563,2.6593,2.6555,2.6562,2.6592,2.6588,2.6639,2.6581,2.6616,2.6617,2.6611,2.674,2.6762,2.6851,2.6697,2.6699,2.6701,0,2.6508,2.6526,2.6602,2.6603,2.6616,2.665,2.6669,2.6696,2.6705,2.6699,2.6713,2.669,2.6732,2.6684,2.674,2.67,2.6714,2.6714,2.6717,2.6717,2.6662,2.674,2.688,2.6892,2.672,2.6719,2.6717,0,2.6604,2.6649,2.6699,2.6706,2.671,2.6735,2.6737,2.6744,2.6759,2.6777,2.6786,2.6809,2.6821,2.6839,2.6822,2.6789,2.688,2.6831,2.6874,2.6875,2.6893,2.6892,2.7034,2.6907,2.6907,2.6907,2.6907,0,2.6718,2.6766,2.6742,2.6772,2.6823,2.6801,2.6852,2.685,2.6856,2.6885,2.6854,2.6882,2.686,2.6886,2.6874,2.692,2.6927,2.6922,2.6917,2.6923,2.6923,2.6929,2.6921,2.691,2.691,2.6909,2.6908,0,2.6834,2.6821,2.6872,2.6871,2.6872,2.6909,2.6908,2.6935,2.6928,2.6965,2.6972,2.6961,2.6989,2.6975,2.7005,2.6996,2.7055,2.7044,2.7052,2.7048,2.7091,2.7086,2.7239,2.7257,2.7122,2.7123,2.7124,0,2.6907,2.6941,2.6943,2.6959,2.6964,2.6992,2.7006,2.6985,2.7002,2.7013,2.7039,2.7065,2.7084,2.7131,2.7125,2.7147,2.7134,2.7187,2.7138,2.7141,2.7131,2.7128,2.713,2.7196,2.7197,2.7199,2.72,0,2.7035,2.7026,2.7048,2.7067,2.7085,2.7099,2.7111,2.7126,2.7105,2.7125,2.7153,2.7168,2.7197,2.7222,2.7241,2.7243,2.7217,2.7215,2.7226,2.7231,2.7232,2.7228,2.7075,2.7212,2.721,2.7209,2.7209,2.7208,2.7129,2.7157,2.7161,2.7186,2.7192,2.7203,2.7228,2.7223,2.7245,2.7267,2.7253,2.7285,2.7292,2.7314,2.732,2.7344,2.7323,2.734,2.7343,2.7347,2.7351,2.723,2.7348,2.7348,2.7347,2.7347,2.7347,0,2.7253,2.7253,2.7276,2.7292,2.7311,2.7285,2.7296,2.7314,2.7342,2.735,2.7368,2.7399,2.7423,2.7418,2.7439,2.7459,2.7448,2.7465,2.7462,2.7462,2.737,2.7357,2.7474,2.7474,2.7474,2.7474,2.7474,2.7474,2.7319,2.7364,2.7355,2.7401,2.7402,2.7432,2.744,2.7449,2.7455,2.749,2.7509,2.7505,2.7508,2.7528,2.7548,2.7546,2.7554,2.7575,2.7569,2.7482,2.7469,2.7457,2.7445,2.7578,2.7578,2.7658,2.7659,2.7659]},{"header":{"parameterUnit":"m.s-1","parameterCategory":1,"la1":30.2991,"la2":30.254,"lo1":-89.0895,"lo2":-89.0444,"dy":0.0017,"dx":0.0017,"nx":28,"ny":28,"refTime":"2024-07-31T09:00:00:Z","depth":0,"parameterNumber":3,"parameterNumberName":"V-component_of_WINDS"},"data":[0,0,0,0,0,0,0,0,0,0,0,0,0,0,0,0,0,0,0,0,0,0,0,0,0,0,0,0,0,0,0,0,0,0,0,0,0,0,0,0,0,0,0,0,0,0,0,0,0,0,0,0,0,0,0,0,0,0,0.7056,0.7057,0,0.7179,0.718,0.7182,0.7221,0.7221,0.722,0.7219,0.7346,0.735,0.7354,0,0,0,0,0,0,0,0,0,0,0,0,0,0.6855,0.6859,0.7056,0.7057,0.7059,0.7179,0.718,0.7182,0.7221,0.7221,0.722,0.7219,0.7345,0.735,0.7354,0,0,0,0,0,0,0,0,0,0,0,0,0,0.6957,0.686,0.7056,0.7093,0.7098,0.7178,0.718,0.7183,0.7221,0.722,0.722,0.7219,0.7343,0.7349,0.7355,0.7408,0,0,0.7373,0.7375,0,0,0,0,0,0,0,0,0.6951,0.6964,0.7086,0.7091,0.7096,0.7184,0.7156,0.7258,0.7222,0.7174,0.7219,0.7218,0.7293,0.7303,0.7328,0.7414,0.7419,0.7373,0.7377,0.7379,0.7381,0,0,0,0,0,0,0,0.6944,0.6959,0.7105,0.7088,0.7094,0.7104,0.7117,0.7176,0.7237,0.7178,0.7182,0.7195,0.7296,0.7322,0.7331,0.7421,0.7373,0.7378,0.7382,0.7384,0.7556,0.7557,0,0,0,0,0,0,0.693,0.6953,0.7101,0.7108,0.702,0.7108,0.7123,0.7156,0.7236,0.7248,0.7196,0.7197,0.7313,0.7324,0.7336,0.7403,0.7379,0.7385,0.7388,0.7555,0.7556,0.7557,0,0,0,0,0,0,0.6926,0.6943,0.7096,0.7031,0.7052,0.7112,0.7149,0.7159,0.7186,0.725,0.7261,0.7212,0.7312,0.7328,0.7389,0.7408,0.7388,0.7393,0.7554,0.7555,0.7557,0.7537,0,0,0,0,0,0,0.692,0.6941,0.6962,0.7032,0.7055,0.7147,0.7151,0.7162,0.7196,0.7198,0.7268,0.7278,0.7313,0.738,0.7395,0.7415,0.7397,0.7552,0.7554,0.7556,0.7536,0.7538,0.7539,0,0,0,0,0,0.6913,0.6952,0.6963,0.6981,0.7082,0.7148,0.7162,0.72,0.7197,0.7219,0.7259,0.7276,0.7403,0.7386,0.7403,0.7426,0.7551,0.7554,0.7556,0.7536,0.7538,0.7539,0,0,0,0,0,0,0.6885,0.6962,0.6975,0.7038,0.7086,0.7155,0.7183,0.7201,0.7251,0.7251,0.7297,0.7313,0.7371,0.7404,0.7385,0.748,0.7478,0.7484,0.7457,0.7459,0.746,0.7451,0.7402,0,0,0,0,0,0.6885,0.6932,0.6998,0.7047,0.7071,0.7123,0.7153,0.7178,0.723,0.7251,0.7296,0.7346,0.7397,0.743,0.748,0.7541,0.7557,0.7564,0.7566,0.7566,0.7571,0.7605,0.7609,0.7565,0.7565,0.7565,0,0,0.6888,0.6937,0.6964,0.7043,0.7083,0.7131,0.714,0.719,0.7226,0.7259,0.732,0.7354,0.7413,0.7474,0.7503,0.7504,0.7587,0.7569,0.7569,0.7574,0.7608,0.7612,0.7616,0.7566,0.7566,0.7566,0,0,0.6918,0.6959,0.7005,0.7044,0.7105,0.7139,0.7149,0.7215,0.7239,0.7301,0.7326,0.7369,0.7456,0.7497,0.7529,0.7571,0.7589,0.7586,0.7594,0.7626,0.7629,0.7633,0.7648,0.7653,0.7591,0.7591,0.7591,0,0.6914,0.6987,0.7026,0.7075,0.7108,0.7139,0.7185,0.7222,0.7296,0.7319,0.7318,0.7427,0.7468,0.7539,0.7549,0.7574,0.7588,0.7579,0.7626,0.7629,0.7633,0.7648,0.7654,0.759,0.759,0.759,0.759,0,0.6979,0.7029,0.7058,0.7128,0.7165,0.7212,0.7258,0.7291,0.7312,0.7346,0.7408,0.7459,0.7519,0.7538,0.756,0.7612,0.761,0.7617,0.7615,0.7636,0.7651,0.7657,0.7589,0.7589,0.7589,0.759,0,0,0.6996,0.7085,0.7096,0.7127,0.7195,0.7234,0.7282,0.7341,0.7368,0.7417,0.7459,0.7531,0.7537,0.7573,0.76,0.7628,0.7658,0.7631,0.7633,0.7635,0.7718,0.7712,0.7718,0.7669,0.767,0.7672,0.7713,0,0.7035,0.7122,0.7157,0.7228,0.7274,0.7303,0.7344,0.739,0.7423,0.7467,0.7503,0.7553,0.7557,0.7579,0.7608,0.7648,0.7675,0.7645,0.7708,0.771,0.7693,0.7726,0.7721,0.7758,0.7719,0.772,0.772,0,0.7092,0.7141,0.7215,0.7276,0.7297,0.7334,0.739,0.7431,0.7484,0.7505,0.7544,0.7569,0.762,0.7614,0.7685,0.7664,0.7691,0.7714,0.7717,0.7725,0.7717,0.7735,0.777,0.7776,0.773,0.7729,0.7729,0,0.7097,0.7181,0.7236,0.7262,0.7335,0.736,0.7392,0.7443,0.7476,0.7524,0.7546,0.76,0.763,0.7671,0.771,0.7702,0.7777,0.7774,0.7796,0.7795,0.7811,0.781,0.7852,0.7828,0.7828,0.7828,0.7828,0,0.7136,0.7181,0.7239,0.7273,0.7324,0.7364,0.7413,0.7446,0.7491,0.7532,0.756,0.7598,0.7646,0.769,0.772,0.7774,0.7787,0.7806,0.7813,0.7804,0.7801,0.7823,0.7822,0.783,0.7829,0.7829,0.7829,0,0.7151,0.7192,0.7254,0.7317,0.7334,0.7368,0.7422,0.7456,0.7489,0.754,0.7555,0.7606,0.7659,0.7701,0.7771,0.7791,0.7847,0.7856,0.7829,0.7833,0.7853,0.7851,0.7911,0.792,0.789,0.789,0.789,0,0.7174,0.7209,0.7275,0.7304,0.7335,0.7381,0.7414,0.7455,0.7488,0.7549,0.7575,0.763,0.7676,0.7759,0.7803,0.7856,0.7866,0.7883,0.7874,0.7863,0.7866,0.7864,0.7867,0.7884,0.7884,0.7885,0.7885,0,0.721,0.7228,0.7274,0.7327,0.7366,0.741,0.7454,0.7476,0.7525,0.756,0.7614,0.765,0.772,0.7774,0.7831,0.7863,0.7882,0.7887,0.7895,0.7885,0.7869,0.7878,0.7832,0.7886,0.7886,0.7885,0.7885,0.7885,0.723,0.7261,0.7313,0.7363,0.74,0.7441,0.7475,0.7512,0.7558,0.7617,0.7638,0.7693,0.7744,0.7822,0.7855,0.7899,0.79,0.7911,0.7915,0.7917,0.7916,0.7861,0.7909,0.7909,0.7909,0.7909,0.7909,0,0.7267,0.7301,0.7347,0.7408,0.7447,0.746,0.751,0.7542,0.759,0.7635,0.7679,0.7741,0.7792,0.784,0.7894,0.792,0.793,0.7933,0.7931,0.7938,0.7911,0.7899,0.7924,0.7924,0.7924,0.7924,0.7924,0.7923,0.7292,0.7346,0.7369,0.7442,0.7476,0.753,0.7557,0.7594,0.763,0.7697,0.774,0.7771,0.7816,0.7874,0.7922,0.7934,0.7953,0.7954,0.7968,0.7942,0.794,0.7939,0.7927,0.7957,0.7957,0.7992,0.7992,0.7992]}]]